This is the latest recevied weather packets stored in our database for station/object NR0A-4. If no packets are shown the sender has not sent any weather packets the latest 10 day(s).
| Time | Temp. | Humidity | Pressure | Rain* | Wind** | Luminosity | Snow |
|---|---|---|---|---|---|---|---|
| 1777655104 | 11.67° C | 40% | 1019.6 hPa | 0 mm | - | 833 W/m² | - |
| 1777654805 | 11.67° C | 45% | 1019.7 hPa | 0 mm | - | 824 W/m² | - |
| 1777654505 | 11.11° C | 43% | 1019.6 hPa | 0 mm | - | 814 W/m² | - |
| 1777654204 | 11.11° C | 42% | 1019.6 hPa | 0 mm | - | 816 W/m² | - |
| 1777653904 | 11.11° C | 46% | 1019.7 hPa | 0 mm | - | 805 W/m² | - |
| 1777653605 | 11.11° C | 45% | 1019.6 hPa | 0 mm | - | 800 W/m² | - |
| 1777653305 | 10.56° C | 45% | 1019.6 hPa | 0 mm | - | 788 W/m² | - |
| 1777653005 | 10.56° C | 49% | 1019.6 hPa | 0 mm | - | 770 W/m² | - |
| 1777652704 | 10.56° C | 49% | 1019.6 hPa | 0 mm | - | 682 W/m² | - |
| 1777652404 | 10.56° C | 48% | 1019.6 hPa | 0 mm | - | 663 W/m² | - |
| 1777652104 | 10.56° C | 49% | 1019.6 hPa | 0 mm | - | 731 W/m² | - |
| 1777651804 | 10.56° C | 50% | 1019.6 hPa | 0 mm | - | 738 W/m² | - |
| 1777651504 | 10° C | 51% | 1019.6 hPa | 0 mm | - | 737 W/m² | - |
| 1777651205 | 10° C | 52% | 1019.5 hPa | 0 mm | - | 719 W/m² | - |
| 1777650904 | 10° C | 52% | 1019.4 hPa | 0 mm | - | 719 W/m² | - |
| 1777650604 | 10° C | 52% | 1019.5 hPa | 0 mm | - | 710 W/m² | - |
| 1777650304 | 10° C | 52% | 1019.4 hPa | 0 mm | - | 696 W/m² | - |
| 1777650005 | 10° C | 55% | 1019.4 hPa | 0 mm | - | 680 W/m² | - |
| 1777649704 | 9.44° C | 54% | 1019.4 hPa | 0 mm | - | 668 W/m² | - |
| 1777649405 | 9.44° C | 55% | 1019.4 hPa | 0 mm | - | 670 W/m² | - |
| 1777649105 | 9.44° C | 53% | 1019.3 hPa | 0 mm | - | 645 W/m² | - |
| 1777648804 | 9.44° C | 52% | 1019.4 hPa | 0 mm | - | 636 W/m² | - |
| 1777648504 | 9.44° C | 55% | 1019.4 hPa | 0 mm | - | 545 W/m² | - |
| 1777648205 | 9.44° C | 56% | 1019.3 hPa | 0 mm | - | 608 W/m² | - |
| 1777647904 | 9.44° C | 58% | 1019.4 hPa | 0 mm | - | 603 W/m² | - |
* Rain latest hour (hover to see other rain measurements)
** Current wind speed in m/s (hover to see current wind gust speed)